Home   Weather   Hillsboro   Past weeks
Flag for USA

Past Weather in Hillsboro, Oregon, USA — Yesterday and Last 2 Weeks

Now
50 °F

Overcast.


Feels Like: 50 °F
Forecast: 59 / 49 °F
Wind: No wind

Location: Portland-Hillsboro Airport

Current Time: Oct 21, 2019 at 5:45:56 am

Latest Report: Oct 21, 2019 at 4:53 am


Visibility: 9 mi

Pressure: 30.21 "Hg

Humidity: 96%

Dew Point: 49 °F

Location of HillsboroLocation

Past Weather in Hillsboro — Graph

°F

Hillsboro Temperature Yesterday

Maximum temperature yesterday: 58 °F (at 5:53 pm)
Minimum temperature yesterday: 43 °F (at 1:53 am)
Average temperature yesterday: 50 °F

High & Low Weather Summary for the Past Weeks

 TemperatureHumidityPressure
High71 °F (Oct 6, 3:53 pm)100% (Oct 6, 6:13 am)30.41 "Hg (Oct 6, 6:13 am)
Low30 °F (Oct 9, 6:53 am)24% (Oct 11, 1:53 pm)29.61 "Hg (Oct 19, 3:53 am)
Average49 °F78%30.03 "Hg
* Reported Oct 6 3:05 am — Oct 21 3:53 am, Hillsboro. Weather by CustomWeather, © 2019

Note: Actual official high and low records may vary slightly from our data, if they occured in-between our weather recording intervals... More about our weather records

Advertising

Hillsboro Weather History for the Previous 24 Hours

Scroll right to see more
 ConditionsComfort  
Time TempWeatherWind HumidityBarometerVisibility
3:53 am
Mon, Oct 21
50 °FMostly cloudy.No wind93%30.20 "Hg8 mi
2:53 am50 °FOvercast.No wind96%30.20 "Hg9 mi
1:53 am50 °FOvercast.3 mph93%30.19 "Hg9 mi
12:53 am50 °FOvercast.No wind96%30.19 "Hg10 mi
11:53 pm
Sun, Oct 20
52 °FPassing clouds.3 mph89%30.16 "Hg10 mi
10:53 pm53 °FOvercast.No wind86%30.15 "Hg10 mi
9:53 pm54 °FOvercast.5 mph80%30.14 "Hg10 mi
8:53 pm55 °FOvercast.7 mph77%30.13 "Hg10 mi
7:53 pm56 °FMostly cloudy.6 mph75%30.12 "Hg10 mi
6:53 pm56 °FOvercast.5 mph75%30.09 "Hg10 mi
5:53 pm58 °FLight rain. Cloudy.7 mph75%30.05 "Hg10 mi
4:53 pm57 °FMostly cloudy.8 mph87%30.03 "Hg10 mi
3:53 pm56 °FMostly cloudy.13 mph81%30.00 "Hg10 mi
2:53 pm53 °FOvercast.8 mph86%30.00 "Hg10 mi
1:53 pm52 °FOvercast.9 mph86%30.01 "Hg10 mi
12:53 pm52 °FOvercast.15 mph86%30.03 "Hg10 mi
11:53 am51 °FFog.13 mph86%30.04 "Hg6 mi
10:53 am51 °FFog.16 mph86%30.04 "Hg6 mi
9:53 am50 °FLight rain. Mostly cloudy.5 mph86%30.05 "Hg7 mi
8:53 am47 °FMostly cloudy.No wind93%30.06 "Hg7 mi
7:53 am46 °FMostly cloudy.No wind93%30.06 "Hg8 mi
7:37 am45 °FOvercast.No wind97%30.07 "Hg9 mi
6:53 am45 °FMostly cloudy.No wind97%30.08 "Hg10 mi
5:53 am45 °FMostly cloudy.No wind93%30.08 "Hg9 mi
5:07 am44 °FMostly cloudy.No wind96%30.08 "Hg9 mi
Weather by CustomWeather, © 2019

See weather overview